Voltar ao catálogo

CHINASAT-6E

AtivoComunicaçõesGEO
NORAD 58253·PAYLOAD·🇨🇳 China

Lançado Nov 9, 2023 de Xichang Satellite Launch Center

Loading…

TLE

AtualizadoSource: Space-Track

Época: Sep 14, 2026, 22:54 UTC

1 58253U 23172A   26257.95441422 -.00000368  00000-0  00000-0 0  9999
2 58253   0.0241 115.3085 0002435  40.6695 297.0361  1.00269494 10553

Acompanhe CHINASAT-6E em tempo real com AllMySat

Download on the App Store